Newcastle, WY

11:21 PM MST on November 11, 2019 (GMT -0700)
Mondell

Weather History for KECS - October, 2019

Change the Weather History Date:

Monday, October 21, 2019

  Actual Average (KCUT) Record (KCUT)
Temperature  
Mean Temperature 34 °F -  
Max Temperature 42 °F 57 °F 76 °F (1950)
Min Temperature 26 °F 29 °F 9 °F (1976)
Degree Days  
Heating Degree Days 31    
Moisture  
Dew Point 27 °F    
Average Humidity 76    
Maximum Humidity 100    
Minimum Humidity 49    
Precipitation  
Precipitation 0.00 in - - ()
Sea Level Pressure  
Sea Level Pressure 29.96 in    
Wind  
Wind Speed 12 mph (NNW)    
Max Wind Speed 21 mph    
Max Gust Speed 26 mph    
Visibility 10 miles    
Events      
Averages and records for this station are not official NWS values.
T = Trace of Precipitation, MM = Missing Value Source: NWS Daily Summary

Daily Weather History Graph

Daily Weather History Graph

Search for Another Location

Airport or City:

Astronomy

Oct. 21, 2019 Rise Set
Actual Time 7:19 AM MDT 6:04 PM MDT
Civil Twilight 6:49 AM MDT 6:33 PM MDT
Nautical Twilight 6:16 AM MDT 7:06 PM MDT
Astronomical Twilight 5:42 AM MDT 7:40 PM MDT
Moon No Moon Rise 2:46 PM MDT (10/21)
Length of Visible Light 11h 43m
Length of Day
10h 45m
Waning Gibbous, 47% of the Moon is Illuminated
Oct 21
Waning Gibbous
Oct 27
New
Nov 4
First Quarter
Nov 12
Full
Nov 19
Last Quarter

Hourly Weather History & Observations

Time (MDT) Temp. Windchill Dew Point Humidity Pressure Visibility Wind Dir Wind Speed Gust Speed Precip Events Conditions
12:15 AM 33.8 °F 24.8 °F 32.0 °F 93% 29.86 in 10.0 mi NW 12.7 mph 21.9 mph N/A   Mostly Cloudy
12:35 AM 32.0 °F 22.1 °F 32.0 °F 100% 29.86 in 10.0 mi NNW 13.8 mph 19.6 mph N/A   Scattered Clouds
12:55 AM 32.0 °F 22.5 °F 32.0 °F 100% 29.86 in 10.0 mi NNW 12.7 mph 19.6 mph N/A   Scattered Clouds
1:35 AM 32.0 °F 22.1 °F 32.0 °F 100% 29.85 in 10.0 mi NW 13.8 mph - N/A   Clear
1:55 AM 32.0 °F 22.1 °F 32.0 °F 100% 29.86 in 10.0 mi NW 13.8 mph - N/A   Clear
2:15 AM 32.0 °F 22.1 °F 30.2 °F 93% 29.86 in 10.0 mi NW 13.8 mph 19.6 mph N/A   Clear
2:35 AM 32.0 °F 22.5 °F 30.2 °F 93% 29.86 in 10.0 mi NNW 12.7 mph 23.0 mph N/A   Clear
3:15 AM 30.2 °F 19.3 °F 30.2 °F 100% 29.87 in 10.0 mi NNW 15.0 mph 19.6 mph N/A   Clear
3:35 AM 30.2 °F 20.2 °F 28.4 °F 93% 29.87 in 10.0 mi NNW 12.7 mph - N/A   Clear
3:55 AM 30.2 °F 19.3 °F 28.4 °F 93% 29.87 in 10.0 mi NNW 15.0 mph - N/A   Clear
4:15 AM 30.2 °F 20.2 °F 28.4 °F 93% 29.87 in 10.0 mi NNW 12.7 mph - N/A   Clear
4:35 AM 30.2 °F 18.9 °F 26.6 °F 86% 29.87 in 10.0 mi NNW 16.1 mph - N/A   Clear
4:55 AM 28.4 °F 18.5 °F 24.8 °F 86% 29.87 in 10.0 mi NW 11.5 mph - N/A   Clear
5:15 AM 28.4 °F 18.0 °F 24.8 °F 86% 29.89 in 10.0 mi NNW 12.7 mph - N/A   Clear
5:35 AM 28.4 °F 18.0 °F 24.8 °F 86% 29.89 in 10.0 mi NNW 12.7 mph - N/A   Clear
5:55 AM 28.4 °F 19.7 °F 23.0 °F 80% 29.90 in 10.0 mi NNW 9.2 mph - N/A   Clear
6:15 AM 28.4 °F 19.7 °F 23.0 °F 80% 29.90 in 10.0 mi NNW 9.2 mph - N/A   Clear
6:35 AM 28.4 °F 18.5 °F 23.0 °F 80% 29.90 in 10.0 mi NNW 11.5 mph - N/A   Clear
6:55 AM 28.4 °F 18.5 °F 23.0 °F 80% 29.90 in 10.0 mi NNW 11.5 mph - N/A   Clear
7:15 AM 28.4 °F 19.1 °F 21.2 °F 74% 29.91 in 10.0 mi NNW 10.4 mph - N/A   Clear
7:35 AM 26.6 °F 16.8 °F 21.2 °F 80% 29.91 in 10.0 mi NNW 10.4 mph - N/A   Clear
7:55 AM 26.6 °F 19.1 °F 21.2 °F 80% 29.91 in 10.0 mi NNW 6.9 mph - N/A   Clear
8:15 AM 28.4 °F 19.1 °F 21.2 °F 74% 29.93 in 10.0 mi NNW 10.4 mph - N/A   Clear
8:35 AM 30.2 °F 23.4 °F 23.0 °F 75% 29.93 in 10.0 mi NW 6.9 mph - N/A   Clear
8:55 AM 30.2 °F 21.9 °F 23.0 °F 75% 29.94 in 10.0 mi NW 9.2 mph - N/A   Clear
9:15 AM 30.2 °F 21.3 °F 23.0 °F 75% 29.95 in 10.0 mi NW 10.4 mph - N/A   Clear
9:35 AM 32.0 °F 23.6 °F 23.0 °F 69% 29.96 in 10.0 mi NW 10.4 mph - N/A   Clear
9:55 AM 32.0 °F 23.6 °F 24.8 °F 75% 29.97 in 10.0 mi NNW 10.4 mph - N/A   Clear
10:15 AM 33.8 °F 26.4 °F 26.6 °F 75% 29.97 in 10.0 mi NNW 9.2 mph - N/A   Clear
10:35 AM 33.8 °F 26.4 °F 26.6 °F 75% 29.97 in 10.0 mi NW 9.2 mph - N/A   Clear
10:55 AM 35.6 °F 27.5 °F 26.6 °F 70% 29.97 in 10.0 mi NW 11.5 mph 17.3 mph N/A   Clear
11:15 AM 35.6 °F 28.0 °F 26.6 °F 70% 29.97 in 10.0 mi NW 10.4 mph 19.6 mph N/A   Clear
11:35 AM 37.4 °F 29.8 °F 26.6 °F 65% 29.97 in 10.0 mi NW 11.5 mph 21.9 mph N/A   Clear
11:55 AM 37.4 °F 29.3 °F 24.8 °F 60% 29.98 in 10.0 mi NW 12.7 mph 21.9 mph N/A   Clear
12:15 PM 39.2 °F 31.2 °F 26.6 °F 61% 29.98 in 10.0 mi NNW 13.8 mph 18.4 mph N/A   Clear
12:35 PM 39.2 °F 31.6 °F 23.0 °F 52% 29.97 in 10.0 mi NW 12.7 mph - N/A   Clear
12:55 PM 41.0 °F 34.7 °F 24.8 °F 53% 29.97 in 10.0 mi NW 10.4 mph 18.4 mph N/A   Clear
1:15 PM 41.0 °F 33.9 °F 23.0 °F 49% 29.97 in 10.0 mi NNW 12.7 mph - N/A   Clear
1:35 PM 41.0 °F 33.9 °F 26.6 °F 57% 29.97 in 10.0 mi NNW 12.7 mph 18.4 mph N/A   Clear
1:55 PM 41.0 °F 34.7 °F 26.6 °F 57% 29.97 in 10.0 mi NNW 10.4 mph - N/A   Scattered Clouds
2:15 PM 41.0 °F 34.3 °F 28.4 °F 61% 29.96 in 10.0 mi North 11.5 mph 17.3 mph N/A   Mostly Cloudy
2:35 PM 41.0 °F 34.7 °F 26.6 °F 57% 29.97 in 10.0 mi NNW 10.4 mph - N/A   Mostly Cloudy
2:55 PM 41.0 °F 33.9 °F 28.4 °F 61% 29.97 in 10.0 mi NNW 12.7 mph - N/A   Overcast
3:15 PM 41.0 °F 33.9 °F 28.4 °F 61% 29.98 in 10.0 mi NNW 12.7 mph 19.6 mph N/A   Overcast
3:35 PM 42.8 °F 35.8 °F 28.4 °F 57% 29.98 in 10.0 mi NW 13.8 mph 18.4 mph N/A   Overcast
3:55 PM 41.0 °F 32.5 °F 26.6 °F 57% 29.99 in 10.0 mi NW 17.3 mph 25.3 mph N/A   Overcast
4:15 PM 41.0 °F 31.6 °F 26.6 °F 57% 30.00 in 10.0 mi NW 20.7 mph 26.5 mph N/A   Overcast
4:35 PM 41.0 °F 33.1 °F 26.6 °F 57% 30.00 in 10.0 mi NW 15.0 mph 23.0 mph N/A   Overcast
4:55 PM 41.0 °F 33.5 °F 26.6 °F 57% 30.01 in 10.0 mi NW 13.8 mph 19.6 mph N/A   Overcast
5:15 PM 41.0 °F 33.5 °F 26.6 °F 57% 30.02 in 10.0 mi NW 13.8 mph 24.2 mph N/A   Overcast
5:35 PM 39.2 °F 32.5 °F 28.4 °F 65% 30.02 in 10.0 mi NW 10.4 mph - N/A   Overcast
5:55 PM 37.4 °F 31.4 °F 28.4 °F 70% 30.02 in 10.0 mi NNW 8.1 mph - N/A   Scattered Clouds
6:15 PM 35.6 °F 29.2 °F 28.4 °F 75% 30.02 in 10.0 mi NW 8.1 mph - N/A   Scattered Clouds
6:35 PM 35.6 °F 30.7 °F 28.4 °F 75% 30.02 in 10.0 mi NW 5.8 mph - N/A   Mostly Cloudy
6:55 PM 33.8 °F 27.7 °F 28.4 °F 81% 30.03 in 10.0 mi NNW 6.9 mph - N/A   Scattered Clouds
7:15 PM 32.0 °F 25.6 °F 28.4 °F 87% 30.04 in 10.0 mi NNW 6.9 mph - N/A   Clear
7:35 PM 32.0 °F 24.8 °F 28.4 °F 87% 30.04 in 10.0 mi NNW 8.1 mph - N/A   Scattered Clouds
7:55 PM 32.0 °F 24.8 °F 28.4 °F 87% 30.04 in 10.0 mi NNW 8.1 mph - N/A   Clear
8:15 PM 30.2 °F 22.6 °F 28.4 °F 93% 30.05 in 10.0 mi NW 8.1 mph - N/A   Clear
8:35 PM 30.2 °F 23.4 °F 28.4 °F 93% 30.05 in 10.0 mi North 6.9 mph - N/A   Clear
8:55 PM 32.0 °F 24.2 °F 28.4 °F 87% 30.06 in 10.0 mi NNW 9.2 mph - N/A   Scattered Clouds
9:15 PM 32.0 °F 24.8 °F 28.4 °F 87% 30.06 in 10.0 mi NW 8.1 mph - N/A   Mostly Cloudy
9:35 PM 32.0 °F 24.8 °F 28.4 °F 87% 30.06 in 10.0 mi NW 8.1 mph - N/A   Overcast
9:55 PM 33.8 °F 26.4 °F 26.6 °F 75% 30.06 in 10.0 mi NW 9.2 mph - N/A   Overcast
10:35 PM 33.8 °F 26.4 °F 26.6 °F 75% 30.07 in 10.0 mi NNW 9.2 mph - N/A   Overcast
11:15 PM 33.8 °F 25.8 °F 26.6 °F 75% 30.07 in 10.0 mi NNW 10.4 mph - N/A   Overcast
11:35 PM 33.8 °F 25.8 °F 26.6 °F 75% 30.07 in 10.0 mi NNW 10.4 mph - N/A   Overcast
11:55 PM 33.8 °F 27.0 °F 26.6 °F 75% 30.07 in 10.0 mi NNW 8.1 mph - N/A   Overcast